Aérodrome :
LOGIN :

S'inscrire | Disclaimer

   EN    FR    IT 

 










Légende :    VFR   VFR Marginal   IFR   IFR Intensif   IFR Très Intensif
Visi : 
Plafond : 
>= 8 km
>= 3000ft
5 à 8 km
1000 à 3000 ft
1500m à 5 km
500 à 1000 ft
800 à 1500m
200 à 500 ft
< 800m
< 200 ft
Symboles :   Orages  Brouillard  Fortes neiges  Fortes précipitations  Vent > 20 kt
SIGMETs :   Divers  Orages  Givrage  Turbulence  Onde Orograph.  Cendres Volcan.







- Altitude de l'aérodrome : 36 ft
- Code IATA : LTQ
- Voir les cartes d'approche


LFAT - Le Touquet

DERNIER METAR :
  • 212300Z AUTO 16002KT 9000 NSC 14/13 Q1015

METARs EXPIRÉS :
  • 212230Z AUTO 13003KT 8000 NSC 14/13 Q1016
  • 212200Z AUTO 00000KT 8000 NSC 16/14 Q1016
  • 212130Z AUTO 00000KT 9000 NSC 16/14 Q1016
  • 212100Z AUTO VRB01KT CAVOK 17/14 Q1015
  • 212030Z AUTO 32003KT CAVOK 17/14 Q1015
  • 212000Z AUTO 31004KT CAVOK 18/14 Q1015

TAF TAF LFAT
Valide du 21 à 15h jusqu'au 22 à 00h UTC


211400Z 2115/2124 32008KT CAVOK
ATIS : +33 3 21 06 62 84
Pas de NOTAMs connus pour ce terrain.



MET'MAP, la Météo Aéronautique d'un coup d'oeil ! - Copyright ORBIFLY Décembre 2007 - Disclaimer

ORBIFLY MET'MAP TEAM :

Programmation & Développement : Alexandra Zaïnal
Conception & Développement : Baudouin d'Aumeries
Co-Programmation & Développement : Marc-Olivier Méhu
Soutien technique & logistique : Manuel Goepfert

Contact : metmap@orbifly.com




SOURCES & CREDITS :

   NOAA